VDNH-80 (44392 NORAD) Tracking and Keplerian Element Data

This shows tracking and keplerian element data for the satellite.

Feedback or suggestion? Click here.




ElementValue
Catalog44392
NameVDNH-80
Epoch Orbit413
Epoch Day215.15082958
Epoch Year2019
RAAN176.5616
Inclination97.4918
Eccentricity0.0022725
Argument of Perigee147.6053
Mean Anonmoly212.6578
Mean Motion15.12203795
Decay Rate3.84E-06
L11 44392U 19038G 19215.15082958 .00000384 00000-0 25893-4 0 9995
L22 44392 97.4918 176.5616 0022725 147.6053 212.6578 15.12203795 4132

Live tracking and technical data element details for VDNH-80 (NORAD 44392). VDNH-80 can be tracked NOW for your location showing map with azimuth and elevation plus other details from your city location.

Track the satellite on the map from your city or location and see movement details for azimuth, elevation, latitude, longitude, range, height, and movement on the map or in text.







IsCatalogInMostPopularTable: catalog: 44392, numindb: 16
Update: records affected: 1



GetName: 44392 VDNH-80

Hit Count: updated at: Wed, 23 Oct 2019 00:53:49 GMT